User: anonymous   Login
Location: Hancock Field Station
(44.9202°N, 120.4259°W)
Time: 08:12:07
(UTC-08:00)
Language:

Nadezhda 4 Rocket - Orbit

View from above orbital plane
View from above orbital plane
View from above satellite
View from above satellite

Ground track
Ground track

The orbit data is extracted from the following two-line orbital elements,

1 23180U 94041B   14327.95649980  .00000090  00000-0  74915-4 0  5725
2 23180 082.9466 267.6695 0028114 331.9219 094.4230 13.77851794 23971
Epoch (UTC): 23 November 2014 22:57:21
Eccentricity: 0.0028114
inclination: 82.9466°
perigee height: 951 km
apogee height: 992 km
right ascension of ascending node: 267.6695°
argument of perigee: 331.9219°
revolutions per day: 13.77851794
mean anomaly at epoch: 94.4230°
orbit number at epoch: 2397

The dashed part of the orbit path shows where the satellite is in the earth's shadow,  

DLR